Preview of NWS' New Version of Forecast
This preview is not operational and should not be used for support decisions.

Regional Weather Roundup (RWR)

Issued by National Weather Service (NWS)

                            
000
ASUS45 KABQ 260010
RWRNM 
NEW MEXICO REGIONAL WEATHER ROUNDUP
NATIONAL WEATHER SERVICE ALBUQUERQUE NM
600 PM MDT SUN AUG 25 2019

NOTE: "FAIR" MEANS FEW OR NO CLOUDS BELOW 12,000 FEET AGL WITH NO
       SIGNIFICANT WEATHER OR OBSTRUCTIONS TO VISION.

      THIS PRODUCT IS RELEASED AS TWO VERSIONS.  ONE VERSION NEAR
      THE TOP OF THE HOUR CONTAINING PRELIMINARY DATA FROM ALBUQUERQUE
      AND OTHER STATIONS.  A FINAL VERSION WITH ADDITIONAL DATA IS 
      ISSUED ABOUT 10 MINUTES AFTER THE HOUR.
 
NMZ501-503-504-510>518-260100-
NORTHWEST PLATEAU/NORTHCENTRAL MOUNTAINS
  
CITY           SKY/WX    TMP DP  RH WIND       PRES   REMARKS
FARMINGTON     FAIR      95  30  10 W17G23    30.02F                  
6HR MIN TEMP:  85; 6HR MAX TEMP:  96;                                

LOS ALAMOS       N/A     89  28  11 SW12G17   30.16S                  
SANTA FE       FAIR      94  29  10 SW21G26   30.06F                  
6HR MIN TEMP:  86; 6HR MAX TEMP:  96;                                

TAOS           FAIR      89  31  12 W17G25    30.13F                  
ANGEL FIRE     FAIR      79  30  16 SW15G24   30.25S                  

$$
NMZ402-403-502-505>509-260100-
WESTCENTRAL MOUNTAINS/SOUTHWEST MOUNTAINS
  
CITY           SKY/WX    TMP DP  RH WIND       PRES   REMARKS
GALLUP         FAIR      90  24   9 W7        30.15F                  
6HR MIN TEMP:  84; 6HR MAX TEMP:  93;                                

GRANTS         FAIR      89  29  11 W8G20     30.16F                  
SILVER CITY    FAIR      91  47  21 W16G23    30.07F                  

$$
NMZ407-409-411-412-260100-
SOUTHERN DESERTS
  
CITY           SKY/WX    TMP DP  RH WIND       PRES   REMARKS
DEMING         FAIR      97  46  17 W17       29.97F                  
6HR MIN TEMP:  90; 6HR MAX TEMP: 100;                                

LAS CRUCES     FAIR      98  39  13 W10       29.98F                  
HOLLOMAN AFB   FAIR     100  38  11 NW8       29.94F                  
ALAMOGORDO     FAIR      99  34  10 W5        29.94S                  
T OR C         FAIR      99  38  12 S9        29.97F                  
6HR MIN TEMP:  91; 6HR MAX TEMP: 101;                                


$$
NMZ519>523-260100-
CENTRAL VALLEYS/CENTRAL HIGHLANDS
  
CITY           SKY/WX    TMP DP  RH WIND       PRES   REMARKS
ALBUQUERQUE    FAIR      96  34  11 CALM      30.00F                  
6HR MIN TEMP:  87; 6HR MAX TEMP:  97;                                

DOUBLE EAGLE   SUNNY     93  34  12 N8        30.05F                  
MORIARTY ARPT  FAIR      94  32  11 SW16      30.10S                  
6HR MIN TEMP:  91; 6HR MAX TEMP:  97;                                

CLINES CORNERS FAIR      88  30  12 W16G29    30.16F                  
6HR MIN TEMP:  86; 6HR MAX TEMP:  92;                                

BELEN          FAIR      98  30   9 W15G23    29.99F                  
6HR MIN TEMP:  89; 6HR MAX TEMP:  99;                                

SOCORRO        FAIR      99  32   9 W13       29.97F                  
6HR MIN TEMP:  93; 6HR MAX TEMP: 101;                                


$$
NMZ524>526-539-540-260100-
SOUTHCENTRAL MOUNTAINS
  
CITY           SKY/WX    TMP DP  RH WIND       PRES   REMARKS
RUIDOSO        FAIR      86  34  15 NW13G21   30.18S                  

$$
NMZ527>531-260100-
NORTHEAST HIGHLANDS/NORTHEAST PLAINS
  
CITY           SKY/WX    TMP DP  RH WIND       PRES   REMARKS
LAS VEGAS      FAIR      92  29  10 VRB3      30.09S                  
6HR MIN TEMP:  88; 6HR MAX TEMP:  93;                                

RATON          FAIR      93  32  11 N7        30.01S                  
6HR MIN TEMP:  91; 6HR MAX TEMP:  97;                                

CLAYTON        FAIR      90  52  27 SE13      29.91F                  
6HR MIN TEMP:  89; 6HR MAX TEMP:  96;                                


$$
NMZ532>537-260100-
EASTCENTRAL PLAINS
  
CITY           SKY/WX    TMP DP  RH WIND       PRES   REMARKS
SANTA ROSA     FAIR     101  41  12 SE5       29.89F HX  96           
TUCUMCARI      FAIR     100  42  13 S12       29.82F HX  95           
6HR MIN TEMP:  95; 6HR MAX TEMP: 102;                                

CANNON AFB     FAIR      97  44  15 S3        29.90F                  
6HR MIN TEMP:  90; 6HR MAX TEMP:  98;                                

CLOVIS AIRPORT FAIR      97  47  18 VRB5      29.90F                  

$$
NMZ028-029-538-260100-
SOUTHEAST PLAINS
  
CITY           SKY/WX    TMP DP  RH WIND       PRES   REMARKS
ROSWELL        FAIR     107  35   8 W12       29.82F HX 100           
6HR MIN TEMP: 102; 6HR MAX TEMP: 109;                                

ARTESIA        FAIR     106  41  11 N10       29.83S HX 100           
CARLSBAD       PTSUNNY  105  41  11 W10       29.79S HX 100           
6HR MIN TEMP: 101; 6HR MAX TEMP: 108;                                

HOBBS          SUNNY    104  28   7 NW15G21   29.81F HX  97           


$$